Regional Weather Roundup
Issued by NWS

Home | Current Version | Previous Version | Graphics & Text | Print | Product List | Glossary On
Versions: 1 2 3 4 5 6 7 8 9 10 11 12 13 14 15 16 17 18 19 20 21 22 23 24 25 26 27 28 29 30 31 32 33 34 35 36 37 38 39 40 41 42 43 44 45 46 47 48 49 50
000
ASUS43 KDMX 280906
RWRIA

WEATHER ROUNDUP FOR IOWA
NATIONAL WEATHER SERVICE DES MOINES IA
400 AM CDT SUN MAY 28 2017

NOTE: "FAIR" INDICATES FEW OR NO CLOUDS BELOW 12,000 FEET WITH NO
SIGNIFICANT WEATHER AND/OR OBSTRUCTIONS TO VISIBILITY.

* - THESE STATIONS ARE NOT NWS STATIONS...THUS NOT UNDER NWS
QUALITY CONTROL.  THEY ALSO DO NOT REPORT WEATHER SUCH
AS PRECIPITATION OR FOG.

IAZ001>003-012>014-020>022-031>034-043>046-281000-
   NORTHWEST IOWA

CITY           SKY/WX    TMP DP  RH WIND       PRES   REMARKS
CARROLL *      CLEAR     55  54  94 W8        29.87F
CHEROKEE *     CLEAR     51  50  99 S5        29.86F
DENISON *      CLEAR     54  50  87 CALM      29.91S
LE MARS *      CLEAR     54  50  87 S7        29.86F
ORANGE CITY *  CLEAR     52  52 100 W5        29.85F
SHELDON *      CLEAR     52  50  93 SW8       29.82F
SIOUX CITY     LGT RAIN  51  50  96 S6        29.88S
SPENCER        CLEAR     50  48  93 S3        29.84S
STORM LAKE *   CLEAR     52  50  93 W10       29.86F
$$

IAZ055>058-069>071-079>083-090>094-281000-
   SOUTHWEST IOWA

CITY           SKY/WX    TMP DP  RH WIND       PRES   REMARKS
ATLANTIC *     PTCLDY    54  54 100 CALM      29.89F
AUDUBON *      CLEAR     52  48  87 CALM      29.89F
CLARINDA *     CLEAR     55  55 100 CALM      29.91F
COUNCIL BLFS * PTCLDY    55  55 100 W7        29.90F
CRESTON *      PTCLDY    55  55 100 NW6       29.89F
HARLAN  *      CLEAR     54  54 100 CALM      29.92F
LAMONI         CLEAR     56  54  93 NW8       29.87S
RED OAK *      PTCLDY    55  54  94 W6        29.89F
SHENANDOAH *   CLEAR     57  55  94 SW5       29.91S
$$

IAZ047>049-059>061-072>074-084-281000-
   CENTRAL IOWA

CITY           SKY/WX    TMP DP  RH WIND       PRES   REMARKS
AMES           CLOUDY    56  54  93 W8        29.85F
ANKENY *       CLOUDY    57  55  94 CALM      29.86F
BOONE *        CLEAR     55  55 100 SW6       29.85F
CHARITON *     CLEAR     54  54 100 NW9       29.84F
DES MOINES     CLOUDY    58  55  90 W3        29.85F
GRINNELL*      CLOUDY    54  51  90 NW6       29.85F
KNOXVILLE *    MOCLDY    54  52  94 NW10      29.83F
MARSHALLTOWN   CLOUDY    55  53  93 W6        29.83F
NEWTON *       CLOUDY    55  54  94 NW6       29.83F
PELLA *        CLOUDY    54  53  94 NW6       29.84F
PERRY *          N/A     56  55  97 W6        29.87F
$$

IAZ004>006-015-016-023>025-035-036-281000-
   NORTH CENTRAL IOWA

CITY           SKY/WX    TMP DP  RH WIND       PRES   REMARKS
ALGONA *       PTCLDY    55  54  94 SW7       29.85S
CLARION *      PTCLDY    55  54  94 SW8       29.85F
ESTHERVILLE    CLEAR     53  51  93 W9        29.82F
FORT DODGE *   PTCLDY    50  46  87 SW5       29.87S
MASON CITY     CLOUDY    56  50  80 W6        29.84F
FOREST CITY *    N/A     52  43  71 CALM      29.84S
WEBSTER CITY * PTCLDY    54  52  94 W10       29.84S
IOWA FALLS *   MOCLDY    57  53  86 SW8       29.85F
$$

IAZ007>011-017>019-026>030-037>042-050>054-066-281000-
   NORTHEAST IOWA

CITY           SKY/WX    TMP DP  RH WIND       PRES   REMARKS
CEDAR RAPIDS   PTCLDY    58  57  97 NW7       29.79F
CHARLES CITY * CLOUDY    57  55  94 W6        29.83F
CLINTON *      PTCLDY    59  58  96 NW8       29.75F
DECORAH *      MOCLDY    55  50  82 CALM      29.80F
DUBUQUE        CLOUDY    59  54  83 N10       29.80S
MONTICELLO *   RAIN      59  57  94 N5        29.79F
WATERLOO       MOCLDY    53  51  93 CALM      29.81F
$$

IAZ064-065-067-068-078-281000-
   EAST CENTRAL IOWA

CITY           SKY/WX    TMP DP  RH WIND       PRES   REMARKS
DAVENPORT      PTCLDY    60  58  92 NW9       29.76F
IOWA CITY      HVY RAIN  61  58  90 NW9       29.80F FOG
MT. PLEASANT * CLOUDY    58  58 100 NW8       29.77F
MUSCATINE *    CLOUDY    59  57  94 NW5       29.76F
QUAD CITIES    CLOUDY    60  58  92 CALM      29.74F FOG
$$

IAZ062-063-075>077-085>089-095>099-281000-
   SOUTHEAST IOWA

CITY           SKY/WX    TMP DP  RH WIND       PRES   REMARKS
BURLINGTON     CLOUDY    62  62 100 N7        29.75F FOG
FAIRFIELD *    CLOUDY    59  55  88 NW13      29.79F
FORT MADISON * CLOUDY    61  61 100 NW5       29.78S FOG
KEOKUK *       FOG       61  61 100 NW8       29.76R VSB 3/4
OSKALOOSA *      N/A     55  53  91 NW9       29.82F
CENTERVILLE *    N/A     55  54  94 NW5       29.84F
OTTUMWA        MOCLDY    56  54  93 NW9       29.81F
WASHINGTON *   CLOUDY    59  59 100 NW13      29.80F
$$

ABBREVIATIONS USED IN REMARKS
   TC - TEMPERATURES IN CELSIUS
  WCI - WIND CHILL INDEX
   HX - HEAT INDEX
  VSB - VISIBILITY
$$





USA.gov is the U.S. government's official web portal to all federal, state and local government web resources and services.